Stagione 2026 · Round 1

Australian Grand Prix

2026-03-08 · Albert Park Grand Prix Circuito · Australia · Australian Grand Prix · 58Lap · 306.124km
Mercedes 1:23:06.801
Vittoria di squadra 43pt P1 · P2 1-2
Ferrari +15.519
Giro veloce
1:22.091 · L43
Ritiro
4
Lance Stroll L43 Fernando Alonso L21 Valtteri Bottas L15 Isack Hadjar L10
Meteo
24°/36°
media aria/pista · asciutto · umidità 54%
Safety car
3
schierata al giro L12, L18, L34
Uso gomme Direzione gara
Storylines · This Grand Prix & circuit
Più vittorie in questo GP
Michael Schumacher 4 vittorie
Conversione pole-vittoria 13/29 44.8%
Most SC/VSC · all-time P1
Arrivo più ravvicinato · all-time P9
Most lead changes · all-time P1
Circuito Info
Albert Park Grand Prix Circuito Melbourne, Australia
58Lap 306.124km 29 gare held (1996–) Record del giro 1:19.813 · Charles Leclerc (2024)
Record Watch · Active drivers ranked at this Grand Prix
P4 Lewis Hamilton 2 vittorie · → Sebastian Vettel -1
P12 Fernando Alonso 1 vittorie · → Nico Rosberg -1
P12 Valtteri Bottas 1 vittorie · → Nico Rosberg -1
P1 Lewis Hamilton 10 · GP #1
P12 Charles Leclerc 3 · → Nico Rosberg -1
P1 Fernando Alonso 21 partenze · GP #1
P4 Lewis Hamilton 18 partenze · → Rubens Barrichello -1
P11 Nico Hülkenberg 13 partenze · → Giancarlo Fisichella -1
Gara Trace · position by lap
VSC · giri 12–14 VSC · giri 18–20 VSC · giro 34 partenza da fermo SG 1 6 11 16 21 26 31 36 41 46 51 56 Russell · sosta ai box L12 Russell RUS Russell RUS Antonelli · sosta ai box L12 Antonelli ANT Antonelli ANT Leclerc · sosta ai box L25 Leclerc LEC Leclerc LEC Hamilton · sosta ai box L28 Hamilton HAM Hamilton HAM Norris · sosta ai box L11 Norris · sosta ai box L34 Norris NOR Norris NOR Verstappen · sosta ai box L18 Verstappen · sosta ai box L41 Verstappen VER Verstappen VER Bearman · sosta ai box L18 Bearman BEA Bearman BEA Lindblad · sosta ai box L18 Lindblad LIN Lindblad LIN Bortoleto · sosta ai box L18 Bortoleto · sosta ai box L33 Bortoleto BOR Bortoleto BOR Gasly · sosta ai box L11 Gasly GAS Gasly GAS Ocon · sosta ai box L11 Ocon OCO Ocon OCO Albon · sosta ai box L12 Albon · sosta ai box L33 Albon ALB Albon ALB Lawson · sosta ai box L11 Lawson · sosta ai box L33 Lawson LAW Lawson LAW Colapinto · sosta ai box L9 Colapinto · sosta ai box L46 Colapinto COL Colapinto COL Sainz · sosta ai box L11 Sainz · sosta ai box L33 Sainz · sosta ai box L45 Sainz SAI Sainz SAI Pérez · sosta ai box L18 Pérez · sosta ai box L43 Pérez PER Pérez PER Stroll · sosta ai box L11 Stroll · sosta ai box L26 Stroll · sosta ai box L34 Stroll · sosta ai box L39 Stroll STR Stroll STR Alonso · sosta ai box L11 Alonso · sosta ai box L13 Alonso · ritiro L21 Alonso ALO Alonso ALO Bottas · sosta ai box L12 Bottas · ritiro L15 Bottas BOT Bottas BOT Hadjar · ritiro L10 Hadjar HAD Hadjar HAD Piastri · fermo L0 · classificato P21 Piastri PIA Piastri PIA Hülkenberg · fermo L0 · classificato P22 Hülkenberg HUL Hülkenberg HUL
SC·VSC sosta ai box penalità scontata ai box SG Griglia di partenza vettura ferma posizione a ogni giro (dal 1996)
PosPilotaTeamGrigliaGiroTempo / StatoPunti
1 63 George Russell Mercedes 1 58 1:23:06.801 25
2 12 Andrea Kimi Antonelli Mercedes 2 58 +2.974 18
3 16 Charles Leclerc Ferrari 4 58 +15.519 15
4 44 Lewis Hamilton Ferrari 7 58 +16.144 12
5 1 Lando Norris McLaren 6 58 +51.741 10
6 3 Max Verstappen FL Red Bull 20 58 +54.617 8
7 87 Oliver Bearman Haas F1 Team 12 57 +4.593 6
8 41 Arvid Lindblad RB F1 Team 9 57 +11.816 4
9 5 Gabriel Bortoleto Audi 10 57 +12.775 2
10 10 Pierre Gasly Alpine F1 Team 14 57 +29.027 1
11 31 Esteban Ocon Haas F1 Team 13 57 +29.850
12 23 Alexander Albon Williams 15 57 +56.075
13 30 Liam Lawson RB F1 Team 8 57 +57.173
14 43 Franco Colapinto Alpine F1 Team 16 56 +8.487
15 55 Carlos Sainz Williams 21 56 +36.886
16 11 Sergio Pérez Cadillac F1 Team 18 55 +7.850
R 18 Lance Stroll Aston Martin 22 43 Lapped
R 14 Fernando Alonso Aston Martin 17 21 Retired
R 77 Valtteri Bottas Cadillac F1 Team 19 15 Retired
R 6 Isack Hadjar Red Bull 3 10 Retired
W 81 Oscar Piastri McLaren 5 0 Did not start
W 27 Nico Hülkenberg Audi 11 0 Did not start
PosPilotaTeamQ1Q2Q3Distacco dalla pole
1 63 George Russell Mercedes 1:19.507 1:18.934 1:18.518 POLE Q3
2 12 Andrea Kimi Antonelli Mercedes 1:20.120 1:19.435 1:18.811 +0.293 Q3
3 6 Isack Hadjar Red Bull 1:20.023 1:19.653 1:19.303 +0.785 Q3
4 16 Charles Leclerc Ferrari 1:20.226 1:19.357 1:19.327 +0.809 Q3
5 81 Oscar Piastri McLaren 1:19.664 1:19.525 1:19.380 +0.862 Q3
6 1 Lando Norris McLaren 1:20.010 1:19.882 1:19.475 +0.957 Q3
7 44 Lewis Hamilton Ferrari 1:19.811 1:19.921 1:19.478 +0.960 Q3
8 30 Liam Lawson RB F1 Team 1:20.491 1:20.144 1:19.994 +1.476 Q3
9 41 Arvid Lindblad RB F1 Team 1:20.409 1:19.971 1:21.247 +1.453 Q2
10 5 Gabriel Bortoleto Audi 1:20.495 1:20.221 +1.703 Q2
11 27 Nico Hülkenberg Audi 1:21.024 1:20.303 +1.785 Q2
12 87 Oliver Bearman Haas F1 Team 1:21.247 1:20.311 +1.793 Q2
13 31 Esteban Ocon Haas F1 Team 1:20.759 1:20.491 +1.973 Q2
14 10 Pierre Gasly Alpine F1 Team 1:21.138 1:20.501 +1.983 Q2
15 23 Alexander Albon Williams 1:21.051 1:20.941 +2.423 Q2
16 43 Franco Colapinto Alpine F1 Team 1:21.200 1:21.270 +2.682 Q1
17 14 Fernando Alonso Aston Martin 1:21.969 +3.451 Q1
18 11 Sergio Pérez Cadillac F1 Team 1:22.605 +4.087 Q1
19 77 Valtteri Bottas Cadillac F1 Team 1:23.244 +4.726 Q1
Griglia di partenza
Ufficiale
Final grid as classificato, including any dalla pit lane partenze. Source: Jolpica-F1. The arrow compares the grid slot with the le qualifiche classification; hover a drop to see the stewards document behind it.
In programma: comparirà al termine di le qualifiche sprint.
PosPilotaGiro miglioreDistaccoGiri
1 16 Charles Leclerc 1:20.267 33
2 44 Lewis Hamilton 1:20.736 +0.469 30
3 3 Max Verstappen 1:20.789 +0.522 27
4 6 Isack Hadjar 1:21.087 +0.820 24
5 41 Arvid Lindblad 1:21.313 +1.046 22
6 81 Oscar Piastri 1:21.342 +1.075 21
7 63 George Russell 1:21.371 +1.104 26
8 12 Andrea Kimi Antonelli 1:21.376 +1.109 24
9 5 Gabriel Bortoleto 1:21.696 +1.429 23
10 27 Nico Hülkenberg 1:21.969 +1.702 21
11 31 Esteban Ocon 1:22.161 +1.894 28
12 55 Carlos Sainz 1:22.323 +2.056 30
13 30 Liam Lawson 1:22.613 +2.346 28
14 87 Oliver Bearman 1:22.682 +2.415 25
15 23 Alexander Albon 1:23.130 +2.863 24
16 43 Franco Colapinto 1:23.325 +3.058 26
17 77 Valtteri Bottas 1:24.022 +3.755 24
18 10 Pierre Gasly 1:24.035 +3.768 27
19 1 Lando Norris 1:24.391 +4.124 7
20 11 Sergio Pérez 1:24.620 +4.353 14
21 18 Lance Stroll 1:50.334 +30.067 3
Classified by best lap · source OpenF1 (2023+)
PosPilotaGiro miglioreDistaccoGiri
1 81 Oscar Piastri 1:19.729 26
2 12 Andrea Kimi Antonelli 1:19.943 +0.214 31
3 63 George Russell 1:20.049 +0.320 28
4 44 Lewis Hamilton 1:20.050 +0.321 32
5 16 Charles Leclerc 1:20.291 +0.562 30
6 3 Max Verstappen 1:20.366 +0.637 13
7 1 Lando Norris 1:20.794 +1.065 29
8 41 Arvid Lindblad 1:20.922 +1.193 30
9 6 Isack Hadjar 1:20.941 +1.212 28
10 31 Esteban Ocon 1:21.179 +1.450 29
11 87 Oliver Bearman 1:21.326 +1.597 31
12 27 Nico Hülkenberg 1:21.351 +1.622 34
13 30 Liam Lawson 1:21.358 +1.629 29
14 5 Gabriel Bortoleto 1:21.668 +1.939 28
15 23 Alexander Albon 1:21.847 +2.118 32
16 10 Pierre Gasly 1:22.167 +2.438 16
17 55 Carlos Sainz 1:22.253 +2.524 10
18 43 Franco Colapinto 1:22.619 +2.890 27
19 77 Valtteri Bottas 1:23.660 +3.931 28
20 14 Fernando Alonso 1:24.662 +4.933 18
21 18 Lance Stroll 1:25.816 +6.087 13
22 11 Sergio Pérez 1:58.806 +39.077 2
Classified by best lap · source OpenF1 (2023+)
PosPilotaGiro miglioreDistaccoGiri
1 63 George Russell 1:19.053 23
2 44 Lewis Hamilton 1:19.669 +0.616 22
3 16 Charles Leclerc 1:19.827 +0.774 20
4 81 Oscar Piastri 1:20.087 +1.034 17
5 6 Isack Hadjar 1:20.137 +1.084 15
6 3 Max Verstappen 1:20.197 +1.144 15
7 12 Andrea Kimi Antonelli 1:20.324 +1.271 18
8 1 Lando Norris 1:20.443 +1.390 22
9 5 Gabriel Bortoleto 1:20.459 +1.406 19
10 87 Oliver Bearman 1:20.778 +1.725 18
11 41 Arvid Lindblad 1:20.838 +1.785 15
12 30 Liam Lawson 1:20.890 +1.837 13
13 31 Esteban Ocon 1:20.983 +1.930 19
14 27 Nico Hülkenberg 1:21.067 +2.014 22
15 10 Pierre Gasly 1:21.071 +2.018 26
16 43 Franco Colapinto 1:21.413 +2.360 22
17 23 Alexander Albon 1:21.664 +2.611 17
18 14 Fernando Alonso 1:22.720 +3.667 20
19 77 Valtteri Bottas 1:23.514 +4.461 12
20 11 Sergio Pérez 1:24.397 +5.344 21
21 55 Carlos Sainz 1
Classified by best lap · source OpenF1 (2023+)
#PilotaTempo sul giroGiro
1 3 Max Verstappen 1:22.091 L43
2 1 Lando Norris 1:22.358 L53
3 12 Andrea Kimi Antonelli 1:22.417 L57
4 44 Lewis Hamilton 1:22.423 L55
5 3 Max Verstappen 1:22.453 L45
6 3 Max Verstappen 1:22.489 L47
7 44 Lewis Hamilton 1:22.500 L56
8 3 Max Verstappen 1:22.520 L44
9 44 Lewis Hamilton 1:22.529 L45
10 44 Lewis Hamilton 1:22.536 L39
Top 10 più veloce race giri — #1 is the più veloce lap of la gara(FL).
Pit stop · a confronto
20s 25s 30s 35s mediana 18.9s Lando Norris · L34 · 17.649s Charles Leclerc · L25 · 17.664s Lewis Hamilton · L28 · 17.741s George Russell · L12 · 17.794s Max Verstappen · L41 · 18.078s Alexander Albon · L12 · 18.118s Liam Lawson · L33 · 18.190s Lando Norris · L11 · 18.266s Alexander Albon · L33 · 18.404s Arvid Lindblad · L18 · 18.506s Franco Colapinto · L46 · 18.561s Esteban Ocon · L11 · 18.570s Pierre Gasly · L11 · 18.672s Oliver Bearman · L18 · 18.774s Gabriel Bortoleto · L18 · 18.916s Sergio Pérez · L43 · 18.951s Max Verstappen · L18 · 19.070s Liam Lawson · L11 · 19.112s Carlos Sainz · L11 · 19.859s Andrea Kimi Antonelli · L12 · 20.985s Sergio Pérez · L18 · 21.371s Lance Stroll · L39 · 22.469s Gabriel Bortoleto · L33 · 22.619s Fernando Alonso · L11 · 25.895s Carlos Sainz · L33 · 25.939s Franco Colapinto · L9 · 27.733s Valtteri Bottas · L12 · 30.387s Lance Stroll · L26 · 33.182s Carlos Sainz · L45 · 34.615s Lance Stroll · L11 · 36.686s
più veloce 17.649s Lando Norris più lenta 36.686s Lance Stroll tempo di transito nella dalla pit lane — un punto per sosta
PilotaSostaGiroTempoTransito in dalla pit lane
43 Franco Colapinto 1 9 15:16:40 27.733s
1 Lando Norris 1 11 15:19:21 18.266s
14 Fernando Alonso 1 11 15:19:50 25.895s
30 Liam Lawson 1 11 15:19:42 19.112s
31 Esteban Ocon 1 11 15:19:26 18.570s
18 Lance Stroll 1 11 15:20:00 36.686s
55 Carlos Sainz 1 11 15:19:35 19.859s
10 Pierre Gasly 1 11 15:19:27 18.672s
23 Alexander Albon 1 12 15:21:28 18.118s
77 Valtteri Bottas 1 12 15:22:42 30.387s
63 George Russell 1 12 15:20:57 17.794s
12 Andrea Kimi Antonelli 1 12 15:20:59 20.985s
14 Fernando Alonso 2 13 15:23:55
11 Sergio Pérez 1 18 15:31:24 21.371s
3 Max Verstappen 1 18 15:30:29 19.070s
41 Arvid Lindblad 1 18 15:30:28 18.506s
87 Oliver Bearman 1 18 15:30:30 18.774s
5 Gabriel Bortoleto 1 18 15:30:35 18.916s
16 Charles Leclerc 1 25 15:40:29 17.664s
18 Lance Stroll 2 26 15:43:52 33.182s
44 Lewis Hamilton 1 28 15:44:45 17.741s
23 Alexander Albon 2 33 15:53:04 18.404s
55 Carlos Sainz 2 33 15:53:09 25.939s
5 Gabriel Bortoleto 2 33 15:52:30 22.619s
30 Liam Lawson 2 33 15:53:16 18.190s
1 Lando Norris 2 34 15:53:48 17.649s
18 Lance Stroll 3 34 15:56:24
18 Lance Stroll 4 39 16:21:43 22.469s
3 Max Verstappen 2 41 16:03:37 18.078s
11 Sergio Pérez 2 43 16:08:53 18.951s
55 Carlos Sainz 3 45 16:10:48 34.615s
43 Franco Colapinto 2 46 16:12:15 18.561s
soste
SG 10 20 30 40 50 L58
63
1
?11·+2
H47
12
1
M11
H47
16
1
M24
H34
44
1
M27
H31
1
2
M10
H23
M25
3
2
H17
M23
H18
87
1
M17
H40
41
1
M17
H40
5
2
M17
H15
H25
10
1
?10·+2
H47
31
1
?10·+2
H47
23
2
?11·+2
H21
S25
30
2
?10·+2
H22
S25
43
2
H45·+9
S11
55
3
S10
H22
M12
S12
11
2
?17·+2
H25
S13
18
4
M10
H15
S8
S5
S5
14
2
S10
S11·+2
77
1
H15
6
0
M10
27
0
H1
S Soft M Medium H Hard I Intermediate W Wet SC·VSC sosta ai box penalità scontata ai box
Gara · larghezza barra = giri su quel treno, ·+N = montato usato con N giri pregressi · fonte OpenF1 (2023+)
Mescole designate per questo Gran Premio
C3 Dura C4 Media C5 Morbida
Pirelli designa tre delle sue mescole slick per ogni evento; più alto è il numero C, più morbida è la gomma. Documento FIA ↗
Più posizioni guadagnate in pista
3
+12
P20→P6
87
+9
P12→P7
5
+9
P10→P9
43
+9
P16→P14
1
+7
P6→P5
30
+7
P8→P13
12
+6
P2→P2
10
+5
P14→P10
Più posizioni perse
Fernando Alonso −11 Valtteri Bottas −8 Gabriel Bortoleto −7
Gara · Somma delle posizioni guadagnate in pista giro per giro — esclusi il giro di partenza e i propri giri ai box. Dati dei giri di gara dal 1996.
PilotaTipoGiroScontataAssegnataMotivo
11 Sergio Pérez No further action Alleged Forcing another driver off the track at Turn 3 (No further action.) Doc 66 ↗
Alleged Forcing another driver off the track at Turn 3 (No further action.) Doc 66 ↗
31 Esteban Ocon No further action Car 31 exceeded the VSC delta in several mini-sectors during a VSC deployment (No further action) Doc 64 ↗
Car 31 exceeded the VSC delta in several mini-sectors during a VSC deployment (No further action) Doc 64 ↗
10 Pierre Gasly No further action Contact occurred between Car 10 and Car 31 at Turn 3. (No further action) Doc 63 ↗
Contact occurred between Car 10 and Car 31 at Turn 3. (No further action) Doc 63 ↗
31 Esteban Ocon No further action Contact occurred between Car 31 and Car 10 at Turn 3. (No further action) Doc 62 ↗
Contact occurred between Car 31 and Car 10 at Turn 3. (No further action) Doc 62 ↗
43 Franco Colapinto Altro sanction A member of the Team's personnel was touching Car 43 on the grid after the fifteen second signal was shown. (Stop and Go Penalty) Doc 60 ↗
A member of the Team's personnel was touching Car 43 on the grid after the fifteen second signal was shown. (Stop and Go Penalty) Doc 60 ↗
27 Nico Hülkenberg No further action At the end of the reconnaissance giri Car 27 did not reach the grid under its own power. (No further Action) Doc 59 ↗
At the end of the reconnaissance giri Car 27 did not reach the grid under its own power. (No further Action) Doc 59 ↗
43 Franco Colapinto No further action Driving Unnecessarily Slow on the Main Straight (No further action.) Doc 27 ↗
Driving Unnecessarily Slow on the Main Straight (No further action.) Doc 27 ↗
63 George Russell Reprimenda Pit Lane Incident with Car 41 (Pilota: Reprimenda) Doc 26 ↗
Pit Lane Incident with Car 41 (Pilota: Reprimenda) Doc 26 ↗
63 George Russell Black-and-white flag warning Car 63 performed a practice start outside the designated practice start area (Pilota: Warning.) Doc 25 ↗
Car 63 performed a practice start outside the designated practice start area (Pilota: Warning.) Doc 25 ↗
Giro = giro in cui è stata inflitta la penalità · Scontata = giro in cui è stata scontata ai box (vuoto: sommata al tempo di gara)
Time, drive-through and stop-go penalties come from race control messages (OpenF1, 2023+). Griglia penalties never appear there — the stewards publish them as documents after the session — so they are worked back from the starting grid against the le qualifiche classification, which gives places actually lost rather than the figure written in the decision.
PilotaTipoGiroScontataAssegnataMotivo
12 Andrea Kimi Antonelli Fine €7,500 Car 12 was released from its garage in an unsafe condition. (The Competitor (Mercedes-AMG Petronas F1 Team) is fined €7,500.) Doc 42 ↗
€7,500 Car 12 was released from its garage in an unsafe condition. (The Competitor (Mercedes-AMG Petronas F1 Team) is fined €7,500.) Doc 42 ↗
10 Pierre Gasly Fine €5 Car 10 was released from its garage in an unsafe condition. (The Competitor (BWT Alpine F1 Team) is fined €5.000.) Doc 41 ↗
€5 Car 10 was released from its garage in an unsafe condition. (The Competitor (BWT Alpine F1 Team) is fined €5.000.) Doc 41 ↗
12 Andrea Kimi Antonelli No further action Alleged pitlane incident – Working on the car in the fast lane (No further action.) Doc 35 ↗
Alleged pitlane incident – Working on the car in the fast lane (No further action.) Doc 35 ↗
30 Liam Lawson Giri cancellati TRACK LIMITS (PIT)
TRACK LIMITS (PIT)
23 Alexander Albon Giri cancellati TRACK LIMITS (PIT)
TRACK LIMITS (PIT)
44 Lewis Hamilton Giri cancellati TRACK LIMITS (PIT)
TRACK LIMITS (PIT)
44 Lewis Hamilton Giri cancellati TRACK LIMITS (PIT)
TRACK LIMITS (PIT)
23 Alexander Albon Giri cancellati TRACK LIMITS (PIT)
TRACK LIMITS (PIT)
12 Andrea Kimi Antonelli Giri cancellati TRACK LIMITS (PIT)
TRACK LIMITS (PIT)
Giro = giro in cui è stata inflitta la penalità · Scontata = giro in cui è stata scontata ai box (vuoto: sommata al tempo di gara)
Time, drive-through and stop-go penalties come from race control messages (OpenF1, 2023+). Griglia penalties never appear there — the stewards publish them as documents after the session — so they are worked back from the starting grid against the le qualifiche classification, which gives places actually lost rather than the figure written in the decision.
PilotaTipoGiroScontataAssegnataMotivo
1 Lando Norris Giri cancellati TRACK LIMITS (PIT)
TRACK LIMITS (PIT)
1 Lando Norris Giri cancellati TRACK LIMITS (PIT)
TRACK LIMITS (PIT)
63 George Russell Giri cancellati TRACK LIMITS (PIT)
TRACK LIMITS (PIT)
63 George Russell Giri cancellati TRACK LIMITS (PIT)
TRACK LIMITS (PIT)
27 Nico Hülkenberg Giri cancellati TRACK LIMITS (PIT)
TRACK LIMITS (PIT)
14 Fernando Alonso Giri cancellati TRACK LIMITS (PIT)
TRACK LIMITS (PIT)
Giro = giro in cui è stata inflitta la penalità · Scontata = giro in cui è stata scontata ai box (vuoto: sommata al tempo di gara)
Time, drive-through and stop-go penalties come from race control messages (OpenF1, 2023+). Griglia penalties never appear there — the stewards publish them as documents after the session — so they are worked back from the starting grid against the le qualifiche classification, which gives places actually lost rather than the figure written in the decision.
PilotaTipoGiroScontataAssegnataMotivo
5 Gabriel Bortoleto Giri cancellati TRACK LIMITS (PIT)
TRACK LIMITS (PIT)
43 Franco Colapinto Giri cancellati TRACK LIMITS (PIT)
TRACK LIMITS (PIT)
6 Isack Hadjar Giri cancellati TRACK LIMITS (PIT)
TRACK LIMITS (PIT)
87 Oliver Bearman Giri cancellati TRACK LIMITS (PIT)
TRACK LIMITS (PIT)
11 Sergio Pérez Giri cancellati TRACK LIMITS (PIT)
TRACK LIMITS (PIT)
Giro = giro in cui è stata inflitta la penalità · Scontata = giro in cui è stata scontata ai box (vuoto: sommata al tempo di gara)
Time, drive-through and stop-go penalties come from race control messages (OpenF1, 2023+). Griglia penalties never appear there — the stewards publish them as documents after the session — so they are worked back from the starting grid against the le qualifiche classification, which gives places actually lost rather than the figure written in the decision.
Decisioni dei commissari senza sanzione nella tabella sopra
PilotaOggettoDocumento FIA
3 Max Verstappen Failing to set a lap time within 107% Apri ↗
55 Carlos Sainz Failing to set a lap time within 107% Apri ↗
18 Lance Stroll Failing to set a lap time within 107% Apri ↗
The sanction itself — fine, reprimand, licence points, or no further action — is written inside the PDF, which we do not read yet. The document link is the source of record.
DocTitoloOggettoPublished(CET)
1 Restricted Periods ↗ 2026-03-05 00:05
2026-03-05 00:05 CET
2 Competition Visa ↗ 2026-03-05 00:13
2026-03-05 00:13 CET
3 Event Notes - Pirelli Preview ↗ 2026-03-05 00:13
2026-03-05 00:13 CET
4 Timetable V3 ↗ 2026-03-05 00:14
2026-03-05 00:14 CET
5 Competition Notes - Circuito Map, Pit Lane Drawing, Emergency Exits Map and Quarantine Zone ↗ 2026-03-05 07:30
2026-03-05 07:30 CET
6 Power Unit Information ↗ 2026-03-05 07:33
2026-03-05 07:33 CET
7 Car Display Procedure ↗ 2026-03-05 08:05
2026-03-05 08:05 CET
8 Gara Director's Competition Notes ↗ 2026-03-05 10:30
2026-03-05 10:30 CET
9 Car Presentation Submissions ↗ 2026-03-06 00:02
2026-03-06 00:02 CET
10 Self Scrutineering ↗ 2026-03-06 00:16
2026-03-06 00:16 CET
12 Event Notes - Pirelli Preview V2 ↗ 2026-03-06 00:47
2026-03-06 00:47 CET
13 Entry List V2 ↗ 2026-03-06 01:10
2026-03-06 01:10 CET
14 New PU elements for this Competition ↗ 2026-03-06 02:34
2026-03-06 02:34 CET
15 Free Practice 1 Classification ↗ 2026-03-06 03:57
2026-03-06 03:57 CET
16 Infringement - Free Practice 1 Deleted Giro Times ↗ 2026-03-06 05:02
2026-03-06 05:02 CET
17 Summons - Car 63 - Alleged Causing a Collision in the Pit Lane ↗ 63 George Russell 2026-03-06 07:25
63 George Russell 2026-03-06 07:25 CET
18 Summons - Car 41 - Alleged Causing a Collision in the Pit Lane ↗ 41 Arvid Lindblad 2026-03-06 07:26
41 Arvid Lindblad 2026-03-06 07:26 CET
19 Summons - Car 43 - Driving Unnecessarily Slowly ↗ 43 Franco Colapinto 2026-03-06 07:26
43 Franco Colapinto 2026-03-06 07:26 CET
20 Free Practice 2 Classification ↗ 2026-03-06 07:26
2026-03-06 07:26 CET
21 Summons - Car 63 - Alleged failure to follow Gara Director's Competition Notes - Practice Partenze ↗ 63 George Russell 2026-03-06 07:59
63 George Russell 2026-03-06 07:59 CET
22 Gara Director's Notes - SC2 - SC1 Time ↗ 2026-03-06 07:59
2026-03-06 07:59 CET
23 Infringement - Free Practice 2 Deleted Giro Times ↗ 2026-03-06 10:00
2026-03-06 10:00 CET
24 P1 and P2 Scrutineering ↗ 2026-03-06 10:20
2026-03-06 10:20 CET
25 Infringement - Car 63 - Failure to follow Gara Director Instruction - Practice Start ↗ 63 George Russell 2026-03-06 10:44
63 George Russell 2026-03-06 10:44 CET
26 Infringement - Car 63 - Pit Lane Incident ↗ 63 George Russell 2026-03-06 10:44
63 George Russell 2026-03-06 10:44 CET
27 Decision - Car 43 - Allegedly Driving Unnecessarily Slow ↗ 43 Franco Colapinto 2026-03-06 10:44
43 Franco Colapinto 2026-03-06 10:44 CET
28 Curfew ↗ 2026-03-07 00:05
2026-03-07 00:05 CET
29 Gara Director's Competition Notes V2 ↗ 2026-03-07 01:33
2026-03-07 01:33 CET
30 Post-Qualifiche Procedure ↗ 2026-03-07 03:23
2026-03-07 03:23 CET
31 Timetable V4 ↗ 2026-03-07 04:02
2026-03-07 04:02 CET
32 Free Practice 3 Classification ↗ 2026-03-07 04:07
2026-03-07 04:07 CET
33 Infringement - Free Practice 3 Deleted Giro Times ↗ 2026-03-07 04:20
2026-03-07 04:20 CET
34 New PU elements for this Competition ↗ 2026-03-07 07:00
2026-03-07 07:00 CET
35 Decision - Car 12 - Alleged pitlane incident ↗ 12 Andrea Kimi Antonelli 2026-03-07 07:57
12 Andrea Kimi Antonelli 2026-03-07 07:57 CET
36 Summons - Car 10 Alleged released in an unsafe condition ↗ 10 Pierre Gasly 2026-03-07 07:42
10 Pierre Gasly 2026-03-07 07:42 CET
37 Summons - Car 12 Alleged released in an unsafe condition ↗ 12 Andrea Kimi Antonelli 2026-03-07 07:42
12 Andrea Kimi Antonelli 2026-03-07 07:42 CET
38 Provisional Qualifiche Classification ↗ 2026-03-07 07:40
2026-03-07 07:40 CET
39 Decision - Car 3 - Failing to set a lap time within 107% ↗ 3 Max Verstappen 2026-03-07 09:36
3 Max Verstappen 2026-03-07 09:36 CET
40 Decision - Car 55 - Failing to set a lap time within 107% ↗ 55 Carlos Sainz 2026-03-07 09:36
55 Carlos Sainz 2026-03-07 09:36 CET
41 Infringement - Car 10 - Released in an unsafe condition ↗ 10 Pierre Gasly 2026-03-07 09:37
10 Pierre Gasly 2026-03-07 09:37 CET
42 Infringement - Car 12 - Released in an unsafe condition ↗ 12 Andrea Kimi Antonelli 2026-03-07 09:37
12 Andrea Kimi Antonelli 2026-03-07 09:37 CET
43 Decision - Car 18 - Failing to set a lap time within 107% ↗ 18 Lance Stroll 2026-03-07 09:37
18 Lance Stroll 2026-03-07 09:37 CET
44 Infringement - Qualifiche Deleted Giro Times - Yellow Bandiere ↗ 2026-03-07 09:46
2026-03-07 09:46 CET
45 Infringement - Qualifiche Deleted Giro Times ↗ 2026-03-07 09:47
2026-03-07 09:47 CET
46 Decision - Qualifiche SC2-SC1 Times ↗ 2026-03-07 09:47
2026-03-07 09:47 CET
47 P3 and Qualifiche Scrutineering ↗ 2026-03-07 10:22
2026-03-07 10:22 CET
48 Final Qualifiche Classification ↗ 2026-03-07 10:43
2026-03-07 10:43 CET
49 Provisional Starting Griglia ↗ 2026-03-07 11:00
2026-03-07 11:00 CET
51 Post-Gara Procedure ↗ 2026-03-08 02:23
2026-03-08 02:23 CET
52 New PU elements for this Competition ↗ 2026-03-08 02:25
2026-03-08 02:25 CET
53 Pre-Gara Procedure v2 ↗ 2026-03-08 02:49
2026-03-08 02:49 CET
54 Parts and parameters been replaced and or changed during Parc Fermé ↗ 2026-03-08 03:55
2026-03-08 03:55 CET
55 Final Starting Griglia ↗ 2026-03-08 04:00
2026-03-08 04:00 CET
56 New PU elements for this Competition ↗ 2026-03-08 04:30
2026-03-08 04:30 CET
57 Summons - Car 31 - Alleged driving unnecessarily slowly during VSC ↗ 31 Esteban Ocon 2026-03-08 06:28
31 Esteban Ocon 2026-03-08 06:28 CET
58 Provisional Gara Classification ↗ 2026-03-08 06:40
2026-03-08 06:40 CET
59 Decision - Car 27 - Start Procedure Infringement ↗ 27 Nico Hülkenberg 2026-03-08 06:42
27 Nico Hülkenberg 2026-03-08 06:42 CET
60 Infringement - Car 43 - Griglia Procedure Infringement ↗ 43 Franco Colapinto 2026-03-08 07:12
43 Franco Colapinto 2026-03-08 07:12 CET
62 Decision - Car 31 - Alleged causing a collision with Car 10 ↗ 31 Esteban Ocon 2026-03-08 07:34
31 Esteban Ocon 2026-03-08 07:34 CET
63 Decision - Car 10 - Alleged causing a collision with Car 31 ↗ 10 Pierre Gasly 2026-03-08 07:34
10 Pierre Gasly 2026-03-08 07:34 CET
64 Decision - Car 31 - Allegedly driving unnecessarily slowly ↗ 31 Esteban Ocon 2026-03-08 07:58
31 Esteban Ocon 2026-03-08 07:58 CET
65 Infringement - Gara Deleted Giro Times ↗ 2026-03-08 07:58
2026-03-08 07:58 CET
66 Decision - Car 11 - Alleged forcing another driver off the track ↗ 11 Sergio Pérez 2026-03-08 08:04
11 Sergio Pérez 2026-03-08 08:04 CET
67 Gara Scrutineering ↗ 2026-03-08 09:06
2026-03-08 09:06 CET
68 Final Gara Classification ↗ 2026-03-08 09:33
2026-03-08 09:33 CET
69 Campionato Punti ↗ 2026-03-08 09:37
2026-03-08 09:37 CET
FIA official decisions and documents (fia.com) · PDF original PDF links
Record Basis · Calculation basis
Gara order is the final classification(post-race penalties applied) · le qualifiche session data 2003+ · lap times 1996+ · pit stops 2012+ (pit-lane transit, not stationary time) · Ritiro = Finished(Finished·+N Giri) non-Finished statuses
Fonti dei dati: Jolpica-F1 (Ergast compatible API) · weather·Direzione gara OpenF1 (2023+) · Last fetched: 2026-09-05 14:15